Location: Nebraska Star Party
(42.6000°N, 100.8833°W)
Time: 16:36:16
(UTC-05:00)

Amateur Radio Satellites - All Passes

Search period start: 22 August 2014 16:06
Search period end: 23 August 2014 16:06
Location: Nebraska Star Party, 42.6000°N, 100.8833°W

Satellite Date Start Highest point End Downlink Frequencies (MHz)
Time Altitude Azimuth
Uosat F 22 Aug 16:09:43 16:13:45 25° 65° (ENE) 16:17:48 435.120 FM
TMSAT-1 22 Aug 16:37:49 16:42:47 41° 262° (W) 16:47:47 436.925 FM
MaSat-1 22 Aug 16:47:19 16:52:03 63° 299° (WNW) 16:57:12 437.345 MHz
OPAL 22 Aug 16:58:59 17:01:48 15° 92° (E) 17:04:37 ?
JAS-2 22 Aug 17:05:44 17:07:59 12° 57° (ENE) 17:10:09 435.800 - 435.900 CW/SSB, 435.910 FM
AO-7 22 Aug 17:07:39 17:16:01 88° 251° (WSW) 17:24:25 29.400 - 29.500 MHz
JAS-1B 22 Aug 17:09:21 17:16:48 24° 271° (W) 17:24:03 435.800 - 435.900 CW/SSB
UOSAT-12 22 Aug 17:10:12 17:14:51 52° 52° (NE) 17:19:25 437.025 FM, 437.400 FM
Gurwin Techsat 1B 22 Aug 17:23:32 17:25:40 12° 272° (W) 17:27:49 435.225 FM
RS-15 22 Aug 17:33:03 17:43:14 40° 37° (NE) 17:53:39 29.354 - 29.394 USB, Beacon 29.352 USB
ISS 22 Aug 17:39:22 17:41:44 18° 353° (N) 17:44:07 145.800 FM
Uosat F 22 Aug 17:47:36 17:52:19 41° 261° (W) 17:57:03 435.120 FM
Hamsat 22 Aug 18:24:22 18:28:24 43° 72° (ENE) 18:32:31 145.90 MHz
MaSat-1 22 Aug 18:28:21 18:30:17 12° 320° (NW) 18:32:15 437.345 MHz
PCSat 22 Aug 18:29:23 18:31:29 12° 102° (ESE) 18:33:36 145.825 MHz
OPAL 22 Aug 18:35:58 18:41:11 73° 289° (WNW) 18:46:22 ?
JAS-2 22 Aug 18:45:37 18:52:16 73° 74° (ENE) 18:58:09 435.800 - 435.900 CW/SSB, 435.910 FM
UOSAT-12 22 Aug 18:51:13 18:54:37 20° 249° (WSW) 18:57:59 437.025 FM, 437.400 FM
AO-7 22 Aug 19:04:29 19:09:51 18° 270° (W) 19:15:14 29.400 - 29.500 MHz
SO-67 22 Aug 19:10:45 19:13:05 17° 68° (ENE) 19:15:25 435.3500 MHz FM
ISS 22 Aug 19:16:41 19:19:20 21° 14° (NNE) 19:21:59 145.800 FM
Sapphire 22 Aug 19:38:31 19:43:40 48° 113° (ESE) 19:48:52 437.095 MHz 1200 baud AX-25 AFSK
RS-15 22 Aug 19:45:30 19:56:31 74° 242° (WSW) 20:07:58 29.354 - 29.394 USB, Beacon 29.352 USB
Hamsat 22 Aug 20:01:47 20:04:35 17° 269° (W) 20:07:26 145.90 MHz
STRAND 1 22 Aug 20:05:14 20:10:00 39° 98° (E) 20:14:45 ?
PCSat 22 Aug 20:08:40 20:14:04 90° 299° (WNW) 20:19:32 145.825 MHz
OPAL 22 Aug 20:17:49 20:19:09 11° 306° (NW) 20:20:29 ?
JAS-2 22 Aug 20:33:24 20:37:43 18° 268° (W) 20:41:46 435.800 - 435.900 CW/SSB, 435.910 FM
SO-67 22 Aug 20:42:55 20:45:56 28° 264° (W) 20:48:59 435.3500 MHz FM
HO-68 22 Aug 20:51:19 20:57:42 37° 62° (ENE) 21:04:05 435.675 MHz FM
Oscar 10/S400 22 Aug 20:53:07 21:12:06 51° 157° (SSE) 22:27:01 145.825 - 145.975 CW/USB, Beacon 145.810 USB
ISS 22 Aug 20:53:08 20:56:29 77° 33° (NNE) 20:59:49 145.800 FM
UKube-1 22 Aug 21:08:02 21:10:49 17° 63° (ENE) 21:13:37 145.840 MHz, 145.915 MHz
Sapphire 22 Aug 21:22:40 21:27:19 28° 312° (NW) 21:31:59 437.095 MHz 1200 baud AX-25 AFSK
Oscar 11 22 Aug 21:24:05 21:26:24 14° 63° (ENE) 21:28:43 145.825 FM, Beacon 2401.500 USB
STRAND 1 22 Aug 21:44:48 21:49:00 27° 295° (WNW) 21:53:12 ?
PCSat 22 Aug 21:54:41 21:58:16 18° 320° (NW) 22:01:53 145.825 MHz
RS-15 22 Aug 22:00:48 22:06:53 17° 262° (W) 22:13:08 29.354 - 29.394 USB, Beacon 29.352 USB
AO-40 22 Aug 22:13:48 02:44:42 35° 187° (S) 07:59:30 Beacon 2401.320
ISS 22 Aug 22:31:03 22:32:49 14° 229° (SW) 22:34:34 145.800 FM
HO-68 22 Aug 22:38:27 22:45:14 46° 260° (W) 22:52:04 435.675 MHz FM
UKube-1 22 Aug 22:42:26 22:46:39 49° 260° (W) 22:50:53 145.840 MHz, 145.915 MHz
Oscar 11 22 Aug 22:57:51 23:02:06 58° 260° (W) 23:06:24 145.825 FM, Beacon 2401.500 USB
FUNcube-1 22 Aug 22:59:29 23:03:30 53° 73° (ENE) 23:07:36 145.950 - 145.970 MHz USB
FUNcube-1 23 Aug 00:38:22 00:40:16 13° 270° (W) 00:42:11 145.950 - 145.970 MHz USB
Saudisat 1A 23 Aug 00:39:45 00:41:48 13° 109° (ESE) 00:43:51 436.775 MHz
MaSat-1 23 Aug 01:04:46 01:09:24 39° 56° (NE) 01:13:31 437.345 MHz
KITSAT 1 23 Aug 01:29:53 01:37:17 41° 110° (ESE) 01:44:42 435.175 FM
Oscar 19 23 Aug 01:59:28 02:01:35 12° 88° (E) 02:03:41 437.125 CW, 437.150 USB
Saudisat 1A 23 Aug 02:16:25 02:20:48 69° 305° (NW) 02:25:14 436.775 MHz
Oscar 16 23 Aug 02:31:00 02:35:22 26° 95° (E) 02:39:41 437.025 USB, Beacon 2401.1428
AO-27 23 Aug 02:38:40 02:40:57 13° 89° (E) 02:43:14 436.795 MHz FM
MaSat-1 23 Aug 02:42:28 02:46:11 23° 257° (WSW) 02:49:34 437.345 MHz
Sapphire 23 Aug 02:44:59 02:46:01 11° 31° (NNE) 02:47:02 437.095 MHz 1200 baud AX-25 AFSK
JAS-1B 23 Aug 03:04:05 03:09:38 23° 88° (E) 03:14:32 435.800 - 435.900 CW/SSB
PCSat 23 Aug 03:13:45 03:17:11 17° 39° (NE) 03:20:36 145.825 MHz
KITSAT 1 23 Aug 03:24:43 03:32:32 50° 310° (NW) 03:40:24 435.175 FM
AO-Echo 23 Aug 03:33:01 03:37:33 45° 99° (E) 03:42:02 ?
Oscar 19 23 Aug 03:36:19 03:41:33 81° 285° (WNW) 03:46:44 437.125 CW, 437.150 USB
ITAMSAT 1 23 Aug 03:49:09 03:54:17 59° 101° (E) 03:59:23 435.822 SSB
Gurwin Techsat 1B 23 Aug 03:55:40 04:00:22 31° 96° (E) 04:05:03 435.225 FM
Saudisat 1A 23 Aug 03:59:17 04:01:13 13° 326° (NW) 04:03:09 436.775 MHz
Uribyol 2 23 Aug 04:01:20 04:06:32 82° 104° (ESE) 04:11:44 436.500 FM
Oscar 16 23 Aug 04:09:59 04:14:48 40° 291° (WNW) 04:19:37 437.025 USB, Beacon 2401.1428
OPAL 23 Aug 04:13:56 04:18:12 29° 63° (ENE) 04:22:31 ?
AO-27 23 Aug 04:15:52 04:21:03 78° 286° (WNW) 04:26:13 436.795 MHz FM
Sapphire 23 Aug 04:25:39 04:30:53 46° 53° (NE) 04:36:05 437.095 MHz 1200 baud AX-25 AFSK
TMSAT-1 23 Aug 04:52:29 04:57:48 76° 103° (ESE) 05:03:05 436.925 FM
JAS-1B 23 Aug 04:53:37 05:01:01 61° 291° (WNW) 05:07:13 435.800 - 435.900 CW/SSB
PCSat 23 Aug 04:55:59 05:01:27 83° 60° (ENE) 05:06:52 145.825 MHz
AO-7 23 Aug 05:09:10 05:16:11 30° 95° (E) 05:23:08 29.400 - 29.500 MHz
AO-Echo 23 Aug 05:12:35 05:16:01 20° 296° (WNW) 05:19:26 ?
Oscar 19 23 Aug 05:18:18 05:20:02 12° 303° (WNW) 05:21:45 437.125 CW, 437.150 USB
KITSAT 1 23 Aug 05:25:00 05:30:09 18° 336° (NNW) 05:35:18 435.175 FM
ITAMSAT 1 23 Aug 05:29:46 05:33:18 19° 298° (WNW) 05:36:51 435.822 SSB
Gurwin Techsat 1B 23 Aug 05:35:34 05:40:20 35° 293° (WNW) 05:45:04 435.225 FM
Uribyol 2 23 Aug 05:42:40 05:45:20 14° 301° (WNW) 05:48:00 436.500 FM
OPAL 23 Aug 05:52:20 05:56:56 36° 261° (W) 06:01:38 ?
Uosat F 23 Aug 05:54:13 05:59:09 57° 101° (E) 06:04:03 435.120 FM
AO-27 23 Aug 05:58:18 05:59:42 11° 304° (WNW) 06:01:06 436.795 MHz FM
Sapphire 23 Aug 06:09:33 06:14:04 27° 252° (WSW) 06:18:32 437.095 MHz 1200 baud AX-25 AFSK
SO-50 23 Aug 06:16:07 06:20:03 31° 115° (ESE) 06:24:04 436.795 FM
TMSAT-1 23 Aug 06:34:01 06:37:04 16° 300° (WNW) 06:40:07 436.925 FM
PCSat 23 Aug 06:41:31 06:44:06 14° 257° (WSW) 06:46:42 145.825 MHz
JAS-1B 23 Aug 06:47:03 06:49:44 12° 315° (NW) 06:52:17 435.800 - 435.900 CW/SSB
AO-7 23 Aug 07:01:17 07:09:27 64° 294° (WNW) 07:17:34 29.400 - 29.500 MHz
STRAND 1 23 Aug 07:21:47 07:26:48 61° 72° (ENE) 07:31:51 ?
UOSAT-12 23 Aug 07:24:49 07:26:46 13° 107° (ESE) 07:28:44 437.025 FM, 437.400 FM
KITSAT 1 23 Aug 07:26:11 07:29:37 13° 7° (N) 07:33:03 435.175 FM
Uosat F 23 Aug 07:34:06 07:37:30 19° 298° (WNW) 07:40:53 435.120 FM
JAS-2 23 Aug 07:38:57 07:44:02 55° 101° (E) 07:49:16 435.800 - 435.900 CW/SSB, 435.910 FM
Hamsat 23 Aug 07:44:59 07:49:23 83° 102° (ESE) 07:53:43 145.90 MHz
SO-50 23 Aug 07:56:30 08:00:33 33° 313° (NW) 08:04:43 436.795 FM
RS-15 23 Aug 08:04:20 08:09:44 15° 97° (E) 08:15:03 29.354 - 29.394 USB, Beacon 29.352 USB
SO-67 23 Aug 08:06:18 08:08:44 18° 93° (E) 08:11:09 435.3500 MHz FM
AO-7 23 Aug 08:56:14 09:00:38 16° 315° (NW) 09:05:03 29.400 - 29.500 MHz
UOSAT-12 23 Aug 09:01:37 09:06:14 78° 305° (NW) 09:10:58 437.025 FM, 437.400 FM
STRAND 1 23 Aug 09:03:15 09:06:24 16° 269° (W) 09:09:34 ?
Saudisat 1A 23 Aug 09:03:54 09:06:54 18° 40° (NE) 09:09:54 436.775 MHz
KITSAT 1 23 Aug 09:21:46 09:28:26 27° 37° (NE) 09:35:04 435.175 FM
Hamsat 23 Aug 09:23:43 09:24:40 11° 299° (WNW) 09:25:36 145.90 MHz
JAS-2 23 Aug 09:25:15 09:28:47 19° 298° (WNW) 09:32:21 435.800 - 435.900 CW/SSB, 435.910 FM
SO-67 23 Aug 09:38:52 09:41:48 26° 289° (WNW) 09:44:43 435.3500 MHz FM
HO-68 23 Aug 10:05:11 10:11:34 34° 96° (E) 10:17:55 435.675 MHz FM
RS-15 23 Aug 10:08:57 10:19:56 71° 117° (ESE) 10:30:45 29.354 - 29.394 USB, Beacon 29.352 USB
UKube-1 23 Aug 10:30:20 10:33:58 25° 96° (E) 10:37:34 145.840 MHz, 145.915 MHz
Saudisat 1A 23 Aug 10:42:34 10:46:58 72° 239° (WSW) 10:51:21 436.775 MHz
UOSAT-12 23 Aug 10:44:33 10:47:12 15° 325° (NW) 10:49:52 437.025 FM, 437.400 FM
Oscar 11 23 Aug 10:45:16 10:48:49 24° 94° (E) 10:52:20 145.825 FM, Beacon 2401.500 USB
FUNcube-1 23 Aug 10:50:24 10:51:16 11° 89° (E) 10:52:08 145.950 - 145.970 MHz USB
KITSAT 1 23 Aug 11:16:47 11:24:55 89° 240° (WSW) 11:32:59 435.175 FM
HO-68 23 Aug 11:52:38 11:59:25 48° 294° (WNW) 12:06:12 435.675 MHz FM
UKube-1 23 Aug 12:06:23 12:10:09 30° 292° (WNW) 12:13:55 145.840 MHz, 145.915 MHz
Oscar 11 23 Aug 12:21:08 12:25:02 32° 291° (WNW) 12:28:54 145.825 FM, Beacon 2401.500 USB
RS-15 23 Aug 12:22:58 12:33:06 40° 323° (NW) 12:43:15 29.354 - 29.394 USB, Beacon 29.352 USB
FUNcube-1 23 Aug 12:23:41 12:28:08 76° 285° (WNW) 12:32:39 145.950 - 145.970 MHz USB
KITSAT 1 23 Aug 13:14:03 13:19:11 19° 259° (WSW) 13:24:20 435.175 FM
Oscar 19 23 Aug 13:16:24 13:20:10 21° 63° (ENE) 13:23:58 437.125 CW, 437.150 USB
ITAMSAT 1 23 Aug 13:31:52 13:34:19 14° 58° (ENE) 13:36:47 435.822 SSB
ISS 23 Aug 13:37:10 13:39:20 17° 132° (SE) 13:41:32 145.800 FM
Uribyol 2 23 Aug 13:42:51 13:46:15 18° 61° (ENE) 13:49:38 436.500 FM
JAS-1B 23 Aug 13:46:39 13:54:52 32° 59° (ENE) 14:02:34 435.800 - 435.900 CW/SSB
Oscar 16 23 Aug 13:48:34 13:53:21 41° 69° (ENE) 13:58:11 437.025 USB, Beacon 2401.1428
AO-27 23 Aug 13:56:52 14:00:51 23° 63° (ENE) 14:04:51 436.795 MHz FM
AO-7 23 Aug 14:24:11 14:25:48 11° 39° (NE) 14:27:26 29.400 - 29.500 MHz
TMSAT-1 23 Aug 14:36:33 14:39:58 18° 61° (ENE) 14:43:23 436.925 FM
RS-15 23 Aug 14:41:31 14:49:36 22° 356° (N) 14:57:46 29.354 - 29.394 USB, Beacon 29.352 USB
AO-Echo 23 Aug 14:46:13 14:51:19 66° 73° (ENE) 14:56:17 ?
SO-50 23 Aug 14:46:28 14:50:57 38° 49° (NE) 14:55:28 436.795 FM
Oscar 19 23 Aug 14:54:07 14:59:07 53° 260° (W) 15:04:12 437.125 CW, 437.150 USB
MaSat-1 23 Aug 14:55:34 14:58:25 16° 100° (E) 15:01:24 437.345 MHz
ITAMSAT 1 23 Aug 15:07:54 15:13:06 86° 256° (WSW) 15:18:18 435.822 SSB
ISS 23 Aug 15:12:27 15:15:45 64° 329° (NNW) 15:19:03 145.800 FM
Gurwin Techsat 1B 23 Aug 15:17:21 15:22:29 53° 71° (ENE) 15:27:38 435.225 FM
Uribyol 2 23 Aug 15:20:07 15:25:13 63° 258° (WSW) 15:30:21 436.500 FM
Oscar 16 23 Aug 15:28:39 15:32:50 25° 266° (W) 15:37:04 437.025 USB, Beacon 2401.1428
Uosat F 23 Aug 15:33:27 15:35:08 12° 57° (ENE) 15:36:50 435.120 FM
JAS-1B 23 Aug 15:34:41 15:44:37 75° 257° (WSW) 15:53:58 435.800 - 435.900 CW/SSB
AO-27 23 Aug 15:35:03 15:40:03 48° 260° (W) 15:45:04 436.795 MHz FM
UOSAT-12 23 Aug 15:51:24 15:54:45 19° 39° (NE) 15:58:04 437.025 FM, 437.400 FM
